KK4OHF Weather Reports


time (UTC)temp
F
wind
direction
speed
knots
gust
knots
rain 1hr
in
rain 24hr
in
rain mn
in
humidity
%
barometer
mb
20260509013006 61 218 0.0 0.0 0.00 0.00 0.00 82 1012.9
20260509012506 61 218 0.0 0.0 0.00 0.00 0.00 83 1012.9
20260509012005 61 218 0.0 0.0 0.00 0.00 0.00 83 1012.9
20260509011005 61 218 0.0 0.0 0.00 0.00 0.00 80 1012.9
20260509010505 61 218 0.0 0.0 0.00 0.00 0.00 80 1012.9
20260509010005 61 218 0.0 0.0 0.00 0.00 0.00 79 1012.9
20260509005505 62 218 0.0 0.0 0.00 0.00 0.00 79 1012.9
20260509005006 62 218 0.0 0.0 0.00 0.00 0.00 79 1012.9
20260509004006 62 218 0.0 0.0 0.00 0.00 0.00 78 1012.9
20260509003505 62 218 0.0 0.0 0.00 0.00 0.00 78 1012.9
20260509002505 62 218 0.0 0.0 0.00 0.00 0.00 78 1012.9
20260509002005 62 218 0.0 0.0 0.00 0.00 0.00 79 1012.9
20260509001505 63 218 0.0 0.0 0.00 0.00 0.00 79 1012.9
20260509001005 63 218 0.0 0.0 0.00 0.00 0.00 79 1012.9
20260509000505 63 218 0.0 0.0 0.00 0.00 0.00 79 1012.9
20260508235505 63 218 0.0 0.0 0.00 0.00 0.00 79 1012.9
20260508235005 63 218 0.0 0.0 0.00 0.00 0.00 79 1012.9
20260508234505 64 218 0.0 0.0 0.00 0.00 0.00 77 1012.9
20260508234005 64 218 0.0 0.0 0.00 0.00 0.00 76 1012.9
20260508233505 64 218 0.0 0.0 0.00 0.00 0.00 75 1012.9
20260508232005 65 138 0.0 0.0 0.00 0.00 0.00 74 1012.9
20260508231504 65 138 0.0 0.0 0.00 0.00 0.00 72 1012.9
20260508231005 65 138 0.0 0.0 0.00 0.00 0.00 72 1012.9
20260508230505 65 138 0.0 0.0 0.00 0.00 0.00 70 1012.9
20260508230005 66 138 0.0 0.0 0.00 0.00 0.00 68 1012.9
20260508225505 66 138 0.0 0.0 0.00 0.00 0.00 68 1012.9
20260508224505 66 138 0.0 0.0 0.00 0.00 0.00 67 1012.9
20260508224005 66 138 0.0 0.0 0.00 0.00 0.00 66 1013.2
20260508222505 67 128 0.0 0.0 0.00 0.00 0.00 62 1013.2
20260508222005 67 219 0.0 0.0 0.00 0.00 0.00 63 1013.2
20260508221505 67 128 0.0 0.0 0.00 0.00 0.00 63 1013.2
20260508221006 67 290 0.0 0.0 0.00 0.00 0.00 62 1013.2
20260508220506 68 244 0.0 0.0 0.00 0.00 0.00 61 1013.2
20260508220005 68 143 0.0 0.0 0.00 0.00 0.00 60 1013.2
20260508215504 68 145 0.0 0.0 0.00 0.00 0.00 61 1013.2
20260508214506 68 340 0.0 0.0 0.00 0.00 0.00 60 1013.2
20260508214005 68 327 0.0 0.0 0.00 0.00 0.00 60 1013.2
20260508213505 68 50 0.0 0.0 0.00 0.00 0.00 62 1013.2
20260508213005 68 0 0.0 0.0 0.00 0.00 0.00 60 1013.2
20260508212506 68 338 0.0 0.0 0.00 0.00 0.00 58 1013.2
20260508212005 69 96 0.0 0.9 0.00 0.00 0.00 58 1013.2
20260508211504 69 136 0.0 0.0 0.00 0.00 0.00 59 1013.2
20260508211007 69 139 0.0 0.0 0.00 0.00 0.00 58 1013.2
20260508210505 69 96 0.0 0.0 0.00 0.00 0.00 59 1013.2
20260508210006 69 155 0.0 0.0 0.00 0.00 0.00 59 1013.1
20260508205505 69 74 0.0 0.0 0.00 0.00 0.00 58 1013.1
20260508205006 70 156 0.0 0.0 0.00 0.00 0.00 57 1013.1
20260508204505 70 186 0.0 0.0 0.00 0.00 0.00 54 1013.1
20260508203505 70 117 0.0 0.0 0.00 0.00 0.00 55 1013.1
20260508202505 70 190 0.0 0.0 0.00 0.00 0.00 53 1013.1
20260508202006 70 150 0.0 0.0 0.00 0.00 0.00 54 1013.1
20260508201505 70 133 0.0 0.0 0.00 0.00 0.00 52 1013.1
20260508201005 71 136 0.0 1.7 0.00 0.00 0.00 51 1013.1
20260508200005 71 60 0.0 0.0 0.00 0.00 0.00 54 1013.1
20260508195506 71 114 0.0 0.0 0.00 0.00 0.00 52 1013.1
20260508195005 71 114 0.0 0.0 0.00 0.00 0.00 51 1013.1
20260508194506 70 114 0.0 0.0 0.00 0.00 0.00 53 1013.1
20260508193505 71 105 0.0 0.0 0.00 0.00 0.00 51 1013.6
20260508193006 71 118 0.0 0.0 0.00 0.00 0.00 50 1013.9
20260508192505 71 101 0.0 0.0 0.00 0.00 0.00 50 1013.9
20260508191505 71 103 0.0 0.0 0.00 0.00 0.00 50 1013.9
20260508191005 72 108 0.0 0.0 0.00 0.00 0.00 51 1013.9
20260508185505 72 127 0.0 1.7 0.00 0.00 0.00 50 1015.2
20260508184505 72 28 0.0 2.6 0.00 0.00 0.00 51 1015.2
20260508184007 71 262 0.9 2.6 0.00 0.00 0.00 48 1015.2
20260508183505 72 82 0.0 0.0 0.00 0.00 0.00 51 1015.2
20260508183006 72 201 0.0 0.0 0.00 0.00 0.00 46 1015.2
20260508182505 73 250 0.0 0.0 0.00 0.00 0.00 46 1015.2
20260508182007 72 196 0.0 0.0 0.00 0.00 0.00 50 1015.2
20260508181506 72 77 0.0 0.0 0.00 0.00 0.00 50 1015.2
20260508180504 71 12 0.0 0.0 0.00 0.00 0.00 47 1015.2
20260508180005 72 101 0.0 0.0 0.00 0.00 0.00 47 1015.2
20260508175505 71 313 0.0 0.0 0.00 0.00 0.00 50 1015.2
20260508175005 71 146 0.0 0.0 0.00 0.00 0.00 49 1015.2
20260508174505 70 24 0.0 0.0 0.00 0.00 0.00 48 1015.2
20260508174005 71 352 0.0 0.0 0.00 0.00 0.00 48 1015.2
20260508173005 70 22 0.0 0.0 0.00 0.00 0.00 49 1015.2
20260508172505 71 346 0.0 0.0 0.00 0.00 0.00 46 1015.2
20260508172005 70 277 0.0 0.9 0.00 0.00 0.00 46 1015.2
20260508171005 70 19 0.0 0.0 0.00 0.00 0.00 48 1017.3
20260508170506 69 15 0.0 0.0 0.00 0.00 0.00 48 1017.3
20260508170006 71 38 0.0 0.0 0.00 0.00 0.00 51 1017.3
20260508165505 71 107 0.0 0.9 0.00 0.00 0.00 47 1017.3
20260508165005 70 91 0.0 1.7 0.00 0.00 0.00 53 1017.3
20260508164506 70 19 0.0 0.0 0.00 0.00 0.00 51 1017.3
20260508164005 69 224 0.0 0.0 0.00 0.00 0.00 51 1017.3
20260508163505 69 134 0.0 0.0 0.00 0.00 0.00 54 1017.3
20260508162505 67 45 0.0 0.0 0.00 0.00 0.00 53 1017.3
20260508162006 68 19 0.0 0.0 0.00 0.00 0.00 50 1017.3
20260508161505 68 123 0.0 0.0 0.00 0.00 0.00 52 1017.3
20260508161005 68 120 0.9 5.2 0.00 0.00 0.00 49 1017.3
20260508160505 67 93 0.0 0.0 0.00 0.00 0.00 55 1017.3
20260508160005 65 11 0.0 0.0 0.00 0.00 0.00 52 1017.3
20260508155004 67 5 0.0 0.0 0.00 0.00 0.00 51 1017.3
20260508154505 67 232 0.0 0.0 0.00 0.00 0.00 55 1017.3
20260508154005 66 136 0.0 0.0 0.00 0.00 0.00 62 1017.3
20260508153504 65 144 0.0 0.0 0.00 0.00 0.00 62 1017.3
20260508152005 64 144 0.0 0.0 0.00 0.01 0.00 61 1017.3
20260508151504 64 121 0.0 0.0 0.00 0.01 0.00 61 1017.3
20260508151006 64 38 0.0 0.0 0.00 0.01 0.00 65 1017.3
20260508150506 63 38 0.0 0.0 0.00 0.01 0.00 67 1017.3
20260508150005 63 38 0.0 0.0 0.00 0.01 0.00 67 1017.3
20260508145505 63 355 0.0 0.0 0.00 0.01 0.00 67 1017.3
20260508144505 62 115 0.0 0.0 0.00 0.01 0.00 69 1017.3
20260508144005 62 115 0.0 0.0 0.00 0.02 0.00 69 1017.3
20260508143505 62 115 0.0 0.0 0.00 0.02 0.00 72 1017.3
20260508143005 62 115 0.0 0.0 0.00 0.02 0.00 73 1017.3
20260508142505 61 115 0.0 0.0 0.00 0.02 0.00 75 1017.3
20260508142005 61 115 0.0 0.0 0.00 0.02 0.00 77 1017.3
20260508141505 60 115 0.0 0.0 0.00 0.02 0.00 75 1017.3
20260508141005 60 134 0.0 0.0 0.00 0.03 0.00 78 1017.3
20260508140505 59 86 0.0 0.0 0.00 0.03 0.00 82 1017.3
20260508140007 59 86 0.0 0.0 0.00 0.03 0.00 83 1017.3
20260508135506 58 82 0.0 0.0 0.00 0.03 0.00 83 1017.3
20260508135005 58 15 0.0 0.0 0.00 0.03 0.00 83 1017.3
20260508134505 57 15 0.0 0.0 0.00 0.05 0.00 83 1017.3
20260508134005 57 15 0.0 0.0 0.00 0.05 0.00 83 1017.3
20260508133506 56 15 0.0 0.0 0.00 0.05 0.00 83 1017.3
20260508133005 56 15 0.0 0.0 0.00 0.05 0.00 86 1017.3
20260508131005 55 290 0.0 0.0 0.00 0.05 0.00 91 1017.3
20260508130005 54 290 0.0 0.0 0.00 0.05 0.00 91 1015.9
20260508125504 53 290 0.0 0.0 0.00 0.06 0.00 92 1015.9
20260508125005 53 290 0.0 0.0 0.00 0.06 0.00 92 1015.9
20260508124505 53 290 0.0 0.0 0.00 0.06 0.00 92 1015.9
20260508124005 53 290 0.0 0.0 0.00 0.06 0.00 92 1015.9
20260508123006 52 290 0.0 0.0 0.00 0.06 0.00 93 1015.9
20260508122506 51 290 0.0 0.0 0.00 0.06 0.00 93 1015.9
20260508122005 50 290 0.0 0.0 0.00 0.06 0.00 93 1015.9
20260508121505 50 290 0.0 0.0 0.00 0.06 0.00 93 1015.9
20260508121005 49 290 0.0 0.0 0.00 0.06 0.00 93 1015.9
20260508120505 49 290 0.0 0.0 0.00 0.06 0.00 93 1015.9
20260508120006 49 290 0.0 0.0 0.00 0.06 0.00 93 1015.9
20260508115505 49 290 0.0 0.0 0.00 0.06 0.00 93 1015.9
20260508115005 48 290 0.0 0.0 0.00 0.07 0.00 93 1015.9
20260508114504 48 290 0.0 0.0 0.00 0.07 0.00 92 1015.9
20260508114006 48 290 0.0 0.0 0.00 0.07 0.00 92 1015.9
20260508113504 48 290 0.0 0.0 0.00 0.07 0.00 92 1015.9
20260508113006 48 290 0.0 0.0 0.00 0.07 0.00 92 1015.9
20260508112505 48 290 0.0 0.0 0.00 0.07 0.00 92 1015.9
20260508112005 48 290 0.0 0.0 0.00 0.07 0.00 92 1014.2
20260508111505 48 290 0.0 0.0 0.00 0.07 0.00 92 1014.2
20260508111005 48 290 0.0 0.0 0.00 0.07 0.00 92 1014.2
20260508110505 48 290 0.0 0.0 0.00 0.07 0.00 92 1014.2
20260508105505 48 290 0.0 0.0 0.00 0.07 0.00 92 1014.2
20260508105005 48 290 0.0 0.0 0.00 0.07 0.00 92 1014.2
20260508104504 48 290 0.0 0.0 0.00 0.08 0.00 92 1014.2
20260508103505 49 290 0.0 0.0 0.00 0.08 0.00 92 1014.2
20260508102505 49 290 0.0 0.0 0.00 0.08 0.00 92 1014.2
20260508102005 49 290 0.0 0.0 0.00 0.08 0.00 92 1014.2
20260508101505 49 290 0.0 0.0 0.00 0.08 0.00 92 1014.2
20260508101005 49 290 0.0 0.0 0.00 0.09 0.00 92 1014.2
20260508100505 49 290 0.0 0.0 0.00 0.10 0.00 92 1014.2
20260508100005 49 290 0.0 0.0 0.00 0.10 0.00 92 1014.2
20260508095506 49 290 0.0 0.0 0.00 0.10 0.00 92 1014.2
20260508095005 49 290 0.0 0.0 0.00 0.10 0.00 92 1014.2
20260508094505 50 290 0.0 0.0 0.00 0.10 0.00 92 1014.2
20260508093505 50 290 0.0 0.0 0.00 0.10 0.00 92 1014.2
20260508093006 50 290 0.0 0.0 0.00 0.10 0.00 92 1014.2
20260508092505 50 290 0.0 0.0 0.00 0.10 0.00 92 1014.2
20260508092005 50 290 0.0 0.0 0.00 0.10 0.00 92 1014.2
20260508091506 50 290 0.0 0.0 0.00 0.10 0.00 92 1014.2
20260508091006 51 290 0.0 0.0 0.00 0.10 0.00 92 1014.2
20260508090505 51 290 0.0 0.0 0.00 0.10 0.00 92 1014.2
20260508090005 51 290 0.0 0.0 0.00 0.10 0.00 92 1014.2
20260508085505 51 290 0.0 0.0 0.00 0.10 0.00 92 1014.2
20260508085006 51 290 0.0 0.0 0.00 0.10 0.00 92 1014.2
20260508084505 51 290 0.0 0.0 0.00 0.10 0.00 92 1014.2
20260508084005 51 290 0.0 0.0 0.00 0.10 0.00 92 1014.2
20260508083506 52 290 0.0 0.0 0.00 0.11 0.00 92 1014.2
20260508083006 52 290 0.0 0.0 0.00 0.11 0.00 92 1013.8
20260508082506 52 290 0.0 0.0 0.00 0.13 0.00 92 1013.8
20260508082005 52 290 0.0 0.0 0.00 0.14 0.00 91 1013.8
20260508081505 52 290 0.0 0.0 0.00 0.16 0.00 91 1013.8
20260508081006 52 290 0.0 0.0 0.00 0.17 0.00 92 1013.8
20260508080505 52 290 0.0 0.0 0.00 0.19 0.00 92 1013.8
20260508080005 52 290 0.0 0.0 0.00 0.20 0.00 91 1013.8
20260508075505 52 290 0.0 0.0 0.00 0.23 0.00 91 1013.8
20260508075006 53 290 0.0 0.0 0.00 0.24 0.00 91 1013.8
20260508074505 53 290 0.0 0.0 0.00 0.25 0.00 91 1013.8
20260508074005 53 290 0.0 0.0 0.00 0.26 0.00 91 1013.8
20260508073505 53 290 0.0 0.0 0.00 0.28 0.00 91 1013.8
20260508073005 53 290 0.0 0.0 0.00 0.29 0.00 91 1013.8
20260508072005 53 290 0.0 0.0 0.00 0.32 0.00 91 1013.8
20260508071504 53 290 0.0 0.0 0.00 0.33 0.00 91 1013.8
20260508071006 53 290 0.0 0.0 0.00 0.35 0.00 91 1014.5
20260508070505 53 290 0.0 0.0 0.00 0.37 0.00 91 1014.5
20260508070005 53 290 0.0 0.0 0.00 0.38 0.00 91 1014.5
20260508065006 54 290 0.0 0.0 0.00 0.49 0.00 91 1014.5
20260508064505 54 290 0.0 0.0 0.00 0.53 0.00 91 1014.5
20260508064005 54 290 0.0 0.0 0.00 0.53 0.00 91 1014.5
20260508063506 54 290 0.0 0.0 0.00 0.54 0.00 91 1014.5
20260508063007 54 290 0.0 0.0 0.00 0.54 0.00 91 1014.5
20260508062505 54 290 0.0 0.0 0.00 0.55 0.00 91 1014.5
20260508061505 54 290 0.0 0.0 0.00 0.55 0.00 91 1014.5
20260508061007 54 290 0.0 0.0 0.00 0.55 0.00 91 1014.6
20260508060506 54 290 0.0 0.0 0.00 0.55 0.00 91 1014.6
20260508060005 54 290 0.0 0.0 0.00 0.55 0.00 91 1014.6
20260508055504 55 290 0.0 0.0 0.00 0.55 0.00 91 1014.6
20260508055005 55 290 0.0 0.0 0.00 0.55 0.00 91 1014.6
20260508054505 55 290 0.0 0.0 0.00 0.56 0.00 91 1014.6
20260508054005 55 290 0.0 0.0 0.00 0.56 0.00 91 1014.6
20260508053005 55 290 0.0 0.0 0.00 0.57 0.00 91 1011.9
20260508052505 55 290 0.0 0.0 0.00 0.59 0.00 91 1011.9
20260508052006 55 290 0.0 0.0 0.00 0.62 0.00 91 1011.9
20260508051505 55 290 0.0 0.0 0.00 0.62 0.00 91 1011.9
20260508051005 55 290 0.0 1.7 0.00 0.62 0.00 91 1011.9
20260508050505 55 290 0.0 1.7 0.00 0.62 0.00 90 1011.9
20260508050005 55 290 0.0 0.0 0.00 0.62 0.00 90 1011.9
20260508045505 56 290 0.0 0.0 0.00 0.62 0.00 90 1011.9
20260508044505 56 290 0.0 0.0 0.00 0.62 0.00 90 1011.9
20260508044005 56 290 0.0 0.0 0.00 0.62 0.00 90 1011.9
20260508043006 56 290 0.0 0.0 0.00 0.63 0.00 90 1011.9
20260508042505 56 290 0.0 0.0 0.00 0.63 0.00 90 1011.9
20260508041505 57 290 0.0 0.0 0.00 0.63 0.00 90 1011.9
20260508041005 57 290 0.0 0.0 0.00 0.63 0.00 90 1011.9
20260508040005 57 290 0.0 0.0 0.00 0.63 0.00 90 1011.9
20260508034505 57 290 0.0 0.0 0.00 0.63 0.54 89 1011.9
20260508034005 57 290 0.0 0.0 0.00 0.63 0.54 89 1011.9
20260508032505 58 290 0.0 0.0 0.00 0.63 0.54 89 1011.9
20260508032005 58 290 0.0 0.0 0.00 0.63 0.54 89 1011.9
20260508031505 58 290 0.0 0.0 0.00 0.63 0.54 88 1011.9
20260508031005 58 290 0.0 0.0 0.00 0.63 0.54 88 1011.9
20260508030506 59 290 0.0 0.0 0.00 0.63 0.54 88 1011.9
20260508030005 59 290 0.0 0.0 0.00 0.63 0.54 88 1011.9
20260508025505 59 290 0.0 0.0 0.00 0.63 0.54 88 1011.9
20260508024005 59 290 0.0 0.0 0.00 0.64 0.54 87 1011.9
20260508023505 60 290 0.0 0.0 0.00 0.64 0.54 87 1011.9
20260508023006 60 290 0.0 0.0 0.00 0.64 0.54 87 1011.9
20260508022505 60 290 0.0 0.0 0.00 0.64 0.54 87 1011.9
20260508021005 61 290 0.0 0.0 0.00 0.66 0.54 86 1011.9
20260508020005 61 290 0.0 0.0 0.00 0.66 0.54 85 1011.9
20260508015506 61 290 0.0 0.0 0.00 0.66 0.54 85 1011.9
20260508015006 61 290 0.0 0.9 0.00 0.66 0.54 85 1011.9
20260508014504 62 290 0.0 0.0 0.00 0.66 0.54 84 1011.9
20260508013505 62 290 0.0 0.0 0.00 0.66 0.54 84 1011.9